Torna al catalogo

STARLINK-4014

AttivoComunicazioniVLEO
NORAD 52684·PAYLOAD·🇺🇸 United States

Lanciato May 18, 2022 da Cape Canaveral Space Force Station

Loading…

Prossimi Passaggi (prossime 24 ore)

TLE

AggiornatoSource: CelesTrak SupGP

Epoca: Sep 15, 2026, 01:50 UTC

1 52684C 22053AE  26258.07687500  .00334640  00000+0  13914-1 0  2589
2 52684  53.1610  12.5283 0001204  89.9036  11.0297 15.23095075    14

Traccia STARLINK-4014 in tempo reale con AllMySat

Download on the App Store